Arlington Heights Weather Forecast: 3 Sunny, Warm Days; Highs in 80s Thursday, Friday, Saturday

TODAY SUNRISE: 5:42 AM SUNSET: 8:14 PM

MOBILE FRIENDLY …

chgowx.com | radar.chgowx.com

Chicagoland weather radar is all clear at about 7:25 p.m.

Satellite images show most of Illinois under clear skies, except for southeast Illinois at about 7:25 p.m.

 NWS POINT FORECAST … 

Detailed Forecast


Tonight
Clear, with a low around 65. West wind around 10 mph, with gusts as high as 20 mph.


Thursday
Sunny, with a high near 89. West wind 10 to 15 mph, with gusts as high as 20 mph.


Thursday Night
Mostly clear, with a low around 65. West wind 5 to 10 mph, with gusts as high as 15 mph.


Friday
Sunny, with a high near 89. West wind 5 to 15 mph, with gusts as high as 25 mph.


Friday Night
Mostly clear, with a low around 65. West northwest wind 5 to 10 mph, with gusts as high as 15 mph.
SaturdaySunny, with a high near 84.


Saturday Night
A 20 percent chance of showers and thunderstorms. Partly cloudy, with a low around 64.


Sunday
A chance of showers and thunderstorms. Mostly sunny, with a high near 83.


Sunday Night
A slight chance of showers and thunderstorms. Partly cloudy, with a low around 65.

 AIRPORT WEATHER OBSERVATIONS … 

Location Time
(cdt)
Sky/Weather Temp.
(ºF)
Dewpt.
(ºF)
Humidity
(%)
Wind
(mph)
Pressure
(in)
Chicago/O’Hare 18:51 A Few Clouds 82 51 34 NW 15 29.97
Chicago Midway Airport 18:53 A Few Clouds 85 48 28 NW 17 G 25 29.96
Chicago Executive Airport 18:52 Fair 83 49 31 W 20 G 25 29.97
Chicago / West Chicago, Dupage Airport 18:52 Fair 81 52 37 W 14 G 22 29.98
Aurora Municipal Airport 18:52 Fair 79 58 49 W 10 30.00
Gary Chicago International 18:45 A Few Clouds 84 52 33 W 15 G 26 29.97
Kenosha Regional Airport 18:53 Fair 80 55 42 W 12 29.95
Chicago / Waukegan, Waukegan Regional Airport 18:55 Fair 80 52 38 Vrbl 5 29.95
Lansing Municipal Airport 19:15 Fair 82 43 26 NW 9 G 17 29.98
Click on location name for the weather during the past two days at that site.

 CHICAGO EXECUTIVE AIRPORT … 

D
a
t
e
Time
(cdt)
Wind
(mph)
Vis.
(mi.)
Weather Sky Cond. Temperature (ºF) Relative
Humidity
Wind
Chill
(°F)
Heat
Index
(°F)
Pressure Precipitation (in.)
Air Dwpt 6 hour altimeter
(in)
sea level
(mb)
1 hr 3 hr 6 hr
Max. Min.
29 18:52 W 20 G 25 10.00 Fair CLR 83 49 88 82 31% NA 81 29.97 1014.5
29 17:52 W 16 G 24 10.00 Fair CLR 85 47 27% NA 83 29.97 1014.4
29 16:52 W 10 G 21 10.00 Fair CLR 86 49 28% NA 84 29.97 1014.2
29 15:52 NW 16 G 25 10.00 Fair CLR 86 48 27% NA 83 29.97 1014.4
29 14:52 W 10 G 22 10.00 Fair CLR 87 50 28% NA 84 29.99 1014.9
29 13:52 NW 14 G 20 10.00 Fair CLR 86 52 31% NA 84 29.99 1015.0
29 12:52 W 14 G 18 10.00 Fair CLR 85 60 86 76 43% NA 85 30.00 1015.1
29 11:52 NW 12 G 17 10.00 Fair CLR 85 60 43% NA 85 29.99 1015.1
29 10:52 NW 12 G 20 10.00 Mostly Cloudy BKN033 83 62 49% NA 84 29.99 1015.0
29 09:52 NW 13 G 20 10.00 Overcast OVC016 80 70 71% NA 83 29.97 1014.3
29 08:52 NW 14 10.00 Mostly Cloudy BKN013 78 72 82% NA 80 29.96 1014.1
29 07:52 NW 8 10.00 Fair CLR 77 71 82% NA 79 29.96 1014.0
29 06:52 Vrbl 6 10.00 A Few Clouds FEW015 76 70 80 76 82% NA 77 29.94 1013.5
29 05:52 SW 5 10.00 Partly Cloudy SCT017 76 70 82% NA 77 29.94 1013.4
29 04:52 SW 7 10.00 A Few Clouds FEW110 76 70 82% NA 77 29.94 1013.3
29 03:52 SW 6 10.00 Mostly Cloudy BKN100 78 70 76% NA 80 29.94 1013.3
29 02:52 SW 6 10.00 Mostly Cloudy SCT060 BKN075 79 72 79% NA 82 29.93 1012.7
29 01:52 SW 3 10.00 Overcast BKN039 OVC047 80 73 79% NA 84 29.92 1012.5
29 00:52 Calm 10.00 Light Rain SCT039 BKN060 BKN110 80 73 87 78 79% NA 84 29.93 1013.0

 MORE HELPFUL LINKS …  

LIVE RADAR | STORM TRACKS | UNISYS US IR SAT | UNISYS Midwest IR SAT | UNISYS More IR SAT

WunderMap® with Temperature/Wind Data || Google: Arlington Heights Temps | NE Illinois Temps

Full Screen Motion Weather Radar (Wunderground.com)

Midwest Cloud Cover with Arlington Heights Weather Forecast | SWPC Aurora Forecast

ChicagoWeatherStation.com I O’Hare Normal Temps/Precip I O’Hare Record Temps, Precip, Snow

SUNLIGHT DATA FOR SECURITY, TRAFFIC SAFETY, AND SPORTS
SunCalc.net data with solar azimuth and trajectory, times for dawn, sunrise, solar noon, sunset, dusk …

LIVE TRAFFIC MAP of neighborhood near …



Become a fan of The Cardinal weather page. Submit your pictures or just stay up-to-date on weather topics — go direct to the Arlington Cardinal Weather photos. For a list of all of The Cardinal Facebook fan pages, go to Arlingtoncardinal.com/about/facebook …